Location: Fort Worth, Tx
(32.7431°N, 97.3695°W)
Time: 05:54:02
(UTC-05:00)

Courier 1B - All Passes

Search period start: 31 January 2023 00:00
Search period end: 10 February 2023 00:00
Orbit: 962 x 1209 km, 28.3° (Epoch: 31 January)

Date Brightness Start Highest point End Pass type
(mag) Time Alt. Az. Time Alt. Az. Time Alt. Az.
31 Jan - 12:40:09 10° S 12:44:15 17° SSE 12:48:16 10° ESE daylight
31 Jan - 14:31:35 10° SW 14:37:41 40° SSE 14:43:39 10° E daylight
31 Jan - 16:24:58 10° WSW 16:31:21 59° S 16:37:43 10° E daylight
31 Jan - 18:18:53 10° W 18:25:05 50° SSW 18:31:28 10° ESE daylight
31 Jan - 20:13:23 10° WSW 20:18:38 26° SSW 20:24:05 10° SSE visible
01 Feb - 11:47:57 10° S 11:50:38 12° SSE 11:53:16 10° SE daylight
01 Feb - 13:38:06 10° SW 13:44:01 33° SSE 13:49:47 10° E daylight
01 Feb - 15:31:15 10° WSW 15:37:40 56° S 15:43:57 10° E daylight
01 Feb - 17:25:07 10° W 17:31:24 55° S 17:37:46 10° ESE daylight
01 Feb - 19:19:22 10° W 19:25:00 31° SSW 19:30:48 10° SE visible
01 Feb - 21:16:35 10° SW 21:18:23 11° SSW 21:20:11 10° SSW visible
02 Feb - 12:44:45 10° SSW 12:50:23 27° SSE 12:55:49 10° ESE daylight
02 Feb - 14:37:31 10° WSW 14:43:58 52° S 14:50:13 10° E daylight
02 Feb - 16:31:20 10° W 16:37:43 59° S 16:44:04 10° ESE daylight
02 Feb - 18:25:28 10° W 18:31:21 38° SSW 18:37:22 10° SE daylight
02 Feb - 20:21:06 10° WSW 20:24:46 15° SSW 20:28:28 10° S visible
03 Feb - 11:51:34 10° SSW 11:56:43 22° SSE 12:01:41 10° ESE daylight
03 Feb - 13:43:50 10° WSW 13:50:16 46° SSE 13:56:27 10° E daylight
03 Feb - 15:37:32 10° WSW 15:44:01 60° S 15:50:22 10° ESE daylight
03 Feb - 17:31:37 10° W 17:37:43 44° SSW 17:43:51 10° SE daylight
03 Feb - 19:26:34 10° WSW 19:31:09 20° SSW 19:35:49 10° SSE visible
04 Feb - 10:58:41 10° S 11:03:03 17° SSE 11:07:17 10° ESE daylight
04 Feb - 12:50:11 10° SW 12:56:35 40° SSE 13:02:40 10° E daylight
04 Feb - 14:43:43 10° WSW 14:50:18 59° S 14:56:40 10° E daylight
04 Feb - 16:37:46 10° W 16:44:03 51° S 16:50:17 10° ESE daylight
04 Feb - 18:32:21 10° WSW 18:37:33 26° SSW 18:42:49 10° SSE daylight
05 Feb - 10:06:24 10° S 10:09:22 13° SSE 10:12:16 10° SE daylight
05 Feb - 11:56:37 10° SW 12:02:52 33° SSE 12:08:48 10° E daylight
05 Feb - 13:49:53 10° WSW 13:56:35 56° S 14:02:58 10° E daylight
05 Feb - 15:43:54 10° W 15:50:22 56° S 15:56:41 10° ESE daylight
05 Feb - 17:38:17 10° W 17:43:57 32° SSW 17:49:37 10° SE daylight
05 Feb - 19:35:25 10° SW 19:37:14 11° SSW 19:39:03 10° SSW visible
06 Feb - 11:03:11 10° SSW 11:09:10 28° SSE 11:14:50 10° ESE daylight
06 Feb - 12:56:04 10° WSW 13:02:50 52° S 13:09:16 10° E daylight
06 Feb - 14:50:02 10° W 14:56:40 60° S 15:03:03 10° ESE daylight
06 Feb - 16:44:18 10° W 16:50:20 39° SSW 16:56:16 10° SE daylight
06 Feb - 18:39:57 10° WSW 18:43:39 16° SSW 18:47:22 10° S daylight
07 Feb - 10:09:58 10° SSW 10:15:26 22° SSE 10:20:41 10° ESE daylight
07 Feb - 12:02:16 10° WSW 12:09:05 46° SSE 12:15:31 10° E daylight
07 Feb - 13:56:07 10° WSW 14:02:56 61° S 14:09:24 10° E daylight
07 Feb - 15:50:21 10° W 15:56:41 46° SSW 16:02:49 10° ESE daylight
07 Feb - 17:45:22 10° WSW 17:50:05 21° SSW 17:54:47 10° SSE daylight
08 Feb - 09:17:03 10° S 09:21:42 17° SSE 09:26:13 10° ESE daylight
08 Feb - 11:08:33 10° SW 11:15:19 40° SSE 11:21:43 10° E daylight
08 Feb - 13:02:11 10° WSW 13:09:09 60° S 13:15:44 10° E daylight
08 Feb - 14:56:24 10° W 15:02:59 53° S 15:09:19 10° ESE daylight
08 Feb - 16:51:05 10° W 16:56:30 27° SSW 17:01:49 10° SSE daylight
09 Feb - 08:24:47 10° S 08:27:57 13° SSE 08:31:05 10° SE daylight
09 Feb - 10:14:56 10° SW 10:21:32 34° SSE 10:27:49 10° E daylight
09 Feb - 12:08:16 10° WSW 12:15:22 57° S 12:22:02 10° E daylight
09 Feb - 14:02:26 10° W 14:09:16 58° S 14:15:44 10° ESE daylight
09 Feb - 15:56:57 10° W 16:02:54 34° SSW 16:08:39 10° SE daylight
09 Feb - 17:53:50 10° SW 17:56:08 12° SSW 17:58:26 10° S daylight
